Regional Weather Roundup
Issued by NWS

Home | Current Version | Previous Version | Graphics & Text | Print | Product List | Glossary Off
Versions: 1 2 3 4 5 6 7 8 9 10 11 12 13 14 15 16 17 18 19 20 21 22 23 24 25 26 27 28 29 30 31 32 33 34 35 36 37 38 39 40 41 42 43 44 45 46 47 48 49 50

000
ASUS43 KDTX 261501
RWRMI
MICHIGAN HOURLY REGIONAL WEATHER ROUNDUP
NATIONAL WEATHER SERVICE DETROIT/PONTIAC MI
1100 AM EDT TUE MAY 26 2015

NOTE: "FAIR" INDICATES FEW OR NO CLOUDS BELOW 12,000 FEET WITH NO
SIGNIFICANT WEATHER AND/OR OBSTRUCTION TO VISIBILITY.

MIZ047>049-052>055-059>063-066>070-074>076-081>083-261600-
SOUTHEAST LOWER MICHIGAN

CITY           SKY/WX    TMP DP  RH WIND       PRES   REMARKS
ADRIAN         CLOUDY    73  64  73 SW12G17   30.07S
ALMA           CLOUDY    70  66  87 S7        30.02S
ANN ARBOR      CLOUDY    71  64  78 SW10      30.07S
BAD AXE        MOSUNNY   76  66  73 S10       30.02S
CARO           MOSUNNY   77  67  70 S9        30.01F
DETROIT CITY   CLOUDY    73  64  73 SW10      30.07S
DETROIT        CLOUDY    75  64  68 S10       30.07F
FLINT          CLOUDY    73  64  73 S13       30.04F
GROSSE ILE     PTSUNNY   72  66  83 S9        30.06S
HILLSDALE      CLOUDY    72  67  84 S10       30.06S
HOWELL         CLOUDY    70  64  83 S9G18     30.05S

CITY           SKY/WX    TMP DP  RH WIND       PRES   REMARKS
JACKSON        CLOUDY    70  64  81 VRB6      30.05F
LAMBERTVILLE   PTSUNNY   77  63  61 SW9       30.07S
LANSING        CLOUDY    70  63  78 S16       30.04S
LAPEER         FAIR      75  63  67 S8        30.04S
MASON          CLOUDY    67  62  84 S7        30.05S
MONROE         MOSUNNY   75  64  69 SW8       30.05F
MT. CLEMENS    PTSUNNY   76  66  71 S14       30.04F
PONTIAC        CLOUDY    71  63  75 S9        30.06S
PORT HOPE        N/A    N/A N/A N/A VRB7      29.99F
PORT HURON     MOSUNNY   73  66  78 S9        30.05F
TRI CITIES     CLOUDY    75  65  70 S13       30.01S
MIDLAND        CLOUDY    74  64  71 S12       30.00S
TROY           CLOUDY    72  65  78 SW12      30.09R
SAGINAW HB     PTSUNNY   73  68  83 SW13      30.01S
$$
MIZ043>046-050>051-056>058-064>065-071>073-077>080-261600-
SOUTHWEST LOWER MICHIGAN

CITY           SKY/WX    TMP DP  RH WIND       PRES   REMARKS
BATTLE CREEK   CLOUDY    71  64  78 SW9       30.03F
BENTON HARBOR  CLOUDY    71  64  78 S10       29.96F
BIG RAPIDS     CLOUDY    69  64  85 S9G21     29.98S HAZE
COLDWATER      CLOUDY    71  64  79 S6        30.03F
FREMONT        CLOUDY    68  65  89 S10       29.97F FOG
HOLLAND        CLOUDY    72  64  76 S13       29.97F
GRAND RAPIDS   CLOUDY    71  64  78 S14       30.00S
IONIA          CLOUDY    72  63  73 S14G22    30.01F
KALAMAZOO      CLOUDY    73  64  73 S10       30.00F
LUDINGTON      CLOUDY    71  67  87 S12       29.94F FOG
MARSHALL       PTSUNNY   71  64  79 S6        30.03F
MOUNT PLEASANT CLOUDY    71  65  83 S7        30.00S
MUSKEGON       CLOUDY    71  63  75 S12G21    29.96F
SOUTH HAVEN    CLOUDY    72  64  76 S8        29.96F
$$
MIZ016>042-261600-
NORTHERN LOWER MICHIGAN

CITY           SKY/WX    TMP DP  RH WIND       PRES   REMARKS
ALPENA         SUNNY     79  63  57 SW12      29.95R
BEAVER ISLAND  SUNNY     70  61  73 SW17G25   29.90S
BELLAIRE       PTSUNNY   76  65  67 S5        29.92S
CADILLAC       CLOUDY    71  65  83 S9        29.97S
CHARLEVOIX     SUNNY     75  65  70 S10G17    29.93F
FRANKFORT      CLOUDY    71  61  71 SW8       29.91F
GAYLORD        PTSUNNY   75  66  73 SW13      29.95F
HARBOR SPRINGS MOSUNNY   71  63  74 SW3       29.91F
HOUGHTON LAKE  MOSUNNY   71  64  78 SW7       29.98F
MANISTEE       CLOUDY    70  63  78 S10       29.93F
OSCODA         MOSUNNY   79  65  62 SW8       29.96F
PELLSTON       SUNNY     76  63  64 SW9       29.91S
ROGERS CITY    MOSUNNY   79  65  63 S13       29.93S
TRAVERSE CITY  MOSUNNY   77  66  68 S7        29.90F
$$
MIZ007>008-015-261600-
EASTERN UPPER MICHIGAN

CITY           SKY/WX    TMP DP  RH WIND       PRES   REMARKS
KINROSS        MOSUNNY   70  63  78 SW12G18   29.90S
MACKINAC ISLAN PTSUNNY   66  61  83 SW7G17    29.90S
NEWBERRY       PTSUNNY   62  60  92 S14G20    29.89S FOG
S. S. MARIE    PTSUNNY   70  62  76 SW12      29.88F
$$
MIZ004>006-011>014-085-261600-
CENTRAL UPPER MICHIGAN

CITY           SKY/WX    TMP DP  RH WIND       PRES   REMARKS
MANISTIQUE     FOG       50  47  92 S13G18    29.88F VSB 3/4
ESCANABA       MOSUNNY   66  57  72 SE9       29.85S
MENOMINEE      MOSUNNY   72  63  73 SW6       29.84F
SAWYER-GWINN   PTSUNNY   68  61  77 SW7       29.85S
$$
MIZ001>003-009>011-084-261600-
WESTERN UPPER MICHIGAN

CITY           SKY/WX    TMP DP  RH WIND       PRES   REMARKS
IRON MOUNTAIN  CLOUDY    68  62  81 CALM      29.84S
HOUGHTON       CLOUDY    55  52  89 NW5       29.85R
COPPER HARBOR    N/A     49  46  90 N7        29.84R
IRONWOOD       CLOUDY    54  54 100 N5        29.84S
$$

ABBREVIATIONS USED IN REMARKS
   TC - TEMPERATURE IN CELSIUS
  WCI - WIND CHILL INDEX
   HX - HEAT INDEX
  VSB - VISIBILITY




USA.gov is the U.S. government's official web portal to all federal, state and local government web resources and services.